KD2DXJ Weather Reports


time (UTC)temp
C
wind
direction
speed
KPH
gust
KPH
rain 1hr
cm
rain 24hr
cm
rain mn
cm
humidity
%
barometer
mb
20260507000544 7 323 0.0 0.0 0.00 1.09 1.09 94 1009.2
20260507000040 7 323 0.0 0.0 0.00 1.09 1.09 95 1009.4
20260506235538 7 323 0.0 0.0 0.00 1.09 1.09 95 1009.1
20260506235033 7 323 0.0 0.0 0.00 1.09 1.09 94 1009.2
20260506234531 7 323 0.0 0.0 0.00 1.09 1.09 93 1009.2
20260506234028 7 323 0.0 0.0 0.00 1.09 1.09 93 1009.0
20260506233524 7 323 0.0 0.0 0.00 1.09 1.09 94 1009.1
20260506233021 7 323 0.0 0.0 0.00 1.09 1.09 94 1009.1
20260506232517 7 323 0.0 0.0 0.00 1.09 1.09 94 1009.1
20260506232013 7 323 0.0 0.0 0.00 1.09 1.09 94 1009.1
20260506231511 7 323 0.0 0.0 0.00 1.09 1.09 92 1009.0
20260506231009 7 323 0.0 0.0 0.00 1.09 1.09 92 1009.3
20260506230504 7 324 0.0 0.0 0.00 1.09 1.09 92 1009.2
20260506230002 7 324 0.0 0.0 0.00 1.09 1.09 92 1009.2
20260506225459 7 324 0.0 0.0 0.00 1.09 1.09 92 1009.3
20260506224954 7 324 0.0 0.0 0.00 1.09 1.09 91 1009.0
20260506224452 7 324 0.0 0.0 0.00 1.09 1.09 91 1008.9
20260506223948 7 324 0.0 0.0 0.00 1.09 1.09 90 1009.0
20260506223444 7 324 0.0 0.0 0.00 1.09 1.09 89 1009.2
20260506222942 7 324 0.0 0.0 0.00 1.09 1.09 90 1009.3
20260506222438 8 342 0.0 0.0 0.00 1.09 1.09 91 1009.3
20260506221935 8 342 0.0 0.0 0.00 1.09 1.09 91 1009.2
20260506221432 8 342 0.0 0.0 0.00 1.09 1.09 90 1009.4
20260506220930 8 344 0.0 0.0 0.00 1.09 1.09 88 1009.2
20260506220425 8 344 0.0 0.0 0.00 1.09 1.09 88 1009.3
20260506215922 8 344 0.0 0.0 0.00 1.09 1.09 88 1009.2
20260506215418 8 344 0.0 0.0 0.00 1.09 1.09 86 1008.9
20260506214914 8 345 3.2 4.8 0.00 1.09 1.09 86 1009.0
20260506214411 8 344 0.0 0.0 0.00 1.09 1.09 86 1009.0
20260506213909 8 345 3.2 3.2 0.00 1.09 1.09 85 1008.9
20260506213406 8 354 1.6 3.2 0.00 1.09 1.09 85 1008.8
20260506212904 8 354 1.6 3.2 0.00 1.09 1.09 84 1008.8
20260506212359 8 355 1.6 1.6 0.00 1.09 1.09 85 1008.7
20260506211854 8 355 1.6 1.6 0.00 1.09 1.09 86 1008.6
20260506211350 8 335 0.0 0.0 0.00 1.09 1.09 88 1008.8
20260506210848 8 335 0.0 0.0 0.00 1.09 1.09 87 1009.0
20260506210344 8 341 3.2 3.2 0.00 1.09 1.09 86 1008.8
20260506205842 8 355 0.0 0.0 0.00 1.09 1.09 88 1008.8
20260506205337 8 355 1.6 1.6 0.00 1.09 1.09 86 1008.8
20260506204834 8 0 1.6 1.6 0.00 1.09 1.09 88 1008.8
20260506204332 8 2 0.0 0.0 0.00 1.09 1.09 87 1008.6
20260506203829 8 2 0.0 0.0 0.00 1.09 1.09 87 1008.8
20260506203326 8 4 1.6 1.6 0.00 1.09 1.09 86 1008.6
20260506202823 7 4 0.0 0.0 0.00 1.09 1.09 87 1008.8
20260506202320 7 351 1.6 1.6 0.00 1.09 1.09 87 1008.5
20260506201816 7 2 4.8 4.8 0.00 1.09 1.09 86 1008.5
20260506201314 7 334 0.0 0.0 0.00 1.09 1.09 90 1009.0
20260506200811 7 350 4.8 4.8 0.00 1.09 1.09 88 1008.8
20260506200307 7 11 0.0 1.6 0.00 1.09 1.09 88 1008.4
20260506195803 7 356 1.6 3.2 0.00 1.09 1.09 88 1008.5
20260506195300 7 41 1.6 1.6 0.00 1.09 1.09 89 1008.6
20260506194757 7 353 1.6 1.6 0.00 1.09 1.09 90 1008.7
20260506194254 7 350 3.2 4.8 0.00 1.09 1.09 91 1008.8
20260506193752 7 353 4.8 6.4 0.00 1.09 1.09 91 1009.0
20260506193248 7 350 3.2 6.4 0.00 1.09 1.09 91 1008.9
20260506192744 7 359 3.2 3.2 0.00 1.09 1.09 90 1009.1
20260506192241 7 342 3.2 3.2 0.00 1.09 1.09 91 1009.1
20260506191738 7 2 6.4 6.4 0.00 1.09 1.09 91 1008.9
20260506191234 7 347 3.2 3.2 0.00 1.09 1.09 91 1008.8
20260506190732 7 352 4.8 4.8 0.00 1.09 1.09 91 1008.8
20260506190228 7 32 1.6 3.2 0.00 1.09 1.09 93 1008.7
20260506185725 6 345 6.4 6.4 0.00 1.09 1.09 93 1008.9
20260506185221 7 6 6.4 6.4 0.00 1.09 1.09 94 1008.9
20260506184719 6 358 3.2 4.8 0.00 1.09 1.09 93 1008.8
20260506184216 6 9 8.0 9.7 0.00 1.09 1.09 94 1009.0
20260506183713 6 352 4.8 4.8 0.00 1.09 1.09 94 1008.8
20260506183209 6 358 6.4 6.4 0.00 1.09 1.09 94 1008.9
20260506182706 6 15 1.6 1.6 0.00 1.09 1.09 95 1008.9
20260506182203 6 6 3.2 4.8 0.00 1.09 1.09 94 1009.0
20260506181701 6 2 3.2 3.2 0.00 1.09 1.09 94 1008.8
20260506181158 6 17 6.4 6.4 0.00 1.09 1.09 95 1009.0
20260506180655 6 325 6.4 6.4 0.00 1.09 1.09 96 1009.1
20260506180151 6 350 0.0 0.0 0.00 1.09 1.09 95 1008.9
20260506175648 6 82 3.2 4.8 0.00 1.09 1.09 94 1008.7
20260506175145 6 19 3.2 3.2 0.00 1.09 1.09 95 1008.8
20260506174643 6 29 3.2 3.2 0.00 1.09 1.09 96 1008.8
20260506174139 6 25 1.6 3.2 0.00 1.09 1.09 96 1008.8
20260506173638 6 13 1.6 1.6 0.00 1.09 1.09 96 1008.8
20260506173134 6 8 4.8 6.4 0.00 1.09 1.09 96 1008.7
20260506172631 6 0 3.2 3.2 0.00 1.09 1.09 96 1008.9
20260506172127 6 31 6.4 6.4 0.00 1.09 1.09 96 1008.9
20260506171625 6 37 0.0 0.0 0.00 1.09 1.09 97 1009.0
20260506171123 6 359 4.8 6.4 0.00 1.09 1.09 97 1009.1
20260506170620 6 354 4.8 4.8 0.00 1.09 1.09 96 1009.1
20260506170117 6 11 4.8 9.7 0.00 1.09 1.09 96 1009.0
20260506165615 6 17 6.4 6.4 0.00 1.09 1.09 96 1009.0
20260506165111 6 3 3.2 3.2 0.00 1.09 1.09 96 1009.0
20260506164608 6 1 6.4 11.3 0.00 1.09 1.09 97 1009.1
20260506164106 6 9 9.7 12.9 0.00 1.09 1.09 97 1009.2
20260506163601 6 8 3.2 9.7 0.00 1.09 1.09 97 1009.3
20260506163057 6 359 6.4 9.7 0.18 1.09 1.09 97 1009.2
20260506162554 6 10 3.2 4.8 0.18 1.09 1.09 97 1009.5
20260506162051 6 0 9.7 12.9 0.00 1.07 1.07 98 1009.2
20260506161549 6 12 8.0 9.7 0.00 1.07 1.07 98 1009.2
20260506161045 6 352 6.4 6.4 0.13 1.07 1.07 98 1009.0
20260506160543 6 1 9.7 11.3 0.13 1.07 1.07 98 1009.1
20260506160039 6 349 4.8 6.4 0.00 1.04 1.04 98 1008.9
20260506155538 6 10 6.4 9.7 0.00 1.04 1.04 98 1008.8
20260506153709 6 359 4.8 4.8 0.00 1.04 1.04 98 1008.7
20260506153207 6 336 3.2 4.8 0.00 1.04 1.04 98 1008.8
20260506152704 6 7 1.6 1.6 0.00 1.04 1.04 98 1008.8
20260506152201 6 358 3.2 3.2 0.18 1.04 1.04 98 1008.7
20260506151700 6 3 6.4 6.4 0.18 1.04 1.04 98 1008.7
20260506151156 5 69 1.6 3.2 0.00 0.99 0.99 98 1008.8
20260506150653 5 347 4.8 4.8 0.00 0.99 0.99 99 1008.6
20260506150150 5 17 8.0 12.9 0.00 0.99 0.99 99 1008.7
20260506145646 5 35 6.4 11.3 0.00 0.99 0.99 99 1008.6
20260506145143 5 353 3.2 6.4 0.00 0.99 0.99 99 1008.7
20260506144641 5 349 6.4 6.4 0.13 0.99 0.99 99 1008.7
20260506144137 5 4 4.8 4.8 0.13 0.99 0.99 99 1008.8
20260506143635 5 354 3.2 3.2 0.00 0.99 0.99 99 1008.7
20260506143133 5 357 4.8 4.8 0.00 0.99 0.99 99 1008.8
20260506142631 5 6 6.4 6.4 0.18 0.99 0.99 99 1008.6
20260506142129 5 355 1.6 1.6 0.18 0.99 0.99 99 1008.7
20260506141626 5 356 0.0 1.6 0.00 0.94 0.94 99 1008.8
20260506141125 5 351 3.2 4.8 0.00 0.94 0.94 99 1009.0
20260506140622 5 346 3.2 3.2 0.13 0.94 0.94 99 1008.5
20260506140119 5 8 0.0 1.6 0.13 0.94 0.94 99 1008.7
20260506135615 5 352 4.8 4.8 0.00 0.94 0.94 99 1008.9
20260506135112 5 5 3.2 4.8 0.13 0.94 0.94 99 1008.8
20260506134608 5 353 1.6 1.6 0.13 0.94 0.94 99 1008.8
20260506134104 5 338 3.2 3.2 0.18 0.91 0.91 99 1008.7
20260506133602 5 336 1.6 1.6 0.18 0.91 0.91 99 1008.8
20260506133059 5 336 3.2 3.2 0.00 0.89 0.89 99 1008.5
20260506132556 5 353 1.6 1.6 0.13 0.89 0.89 99 1008.4
20260506132053 5 57 1.6 3.2 0.13 0.89 0.89 99 1008.6
20260506131550 5 350 3.2 4.8 0.13 0.86 0.86 99 1008.4
20260506131046 5 77 1.6 3.2 0.13 0.86 0.86 99 1008.5
20260506130543 5 61 3.2 3.2 0.13 0.86 0.86 99 1008.8
20260506130041 5 351 0.0 1.6 0.18 0.84 0.84 99 1008.8
20260506125539 5 355 0.0 0.0 0.18 0.84 0.84 99 1008.7
20260506125037 5 355 1.6 1.6 0.00 0.81 0.81 99 1008.7
20260506124534 5 48 4.8 4.8 0.13 0.81 0.81 99 1008.7
20260506124032 5 342 4.8 6.4 0.13 0.81 0.81 99 1008.5
20260506123529 5 69 3.2 3.2 0.18 0.79 0.79 99 1008.8
20260506123027 5 11 6.4 9.7 0.18 0.79 0.79 99 1008.8
20260506122524 5 24 1.6 1.6 0.18 0.79 0.79 99 1008.8
20260506122022 5 333 3.2 3.2 0.00 0.76 0.76 99 1009.0
20260506121519 5 319 1.6 1.6 0.13 0.76 0.76 99 1008.8
20260506121015 5 319 3.2 3.2 0.13 0.76 0.76 99 1008.8
20260506120514 5 293 1.6 1.6 0.00 0.74 0.74 99 1008.8
20260506120011 5 243 1.6 1.6 0.13 0.74 0.74 99 1008.9
20260506115508 5 243 0.0 0.0 0.13 0.74 0.74 99 1008.8
20260506115007 5 242 1.6 1.6 0.00 0.71 0.71 99 1009.1
20260506114504 5 241 0.0 0.0 0.18 0.71 0.71 99 1009.2
20260506114002 5 241 0.0 1.6 0.18 0.71 0.71 99 1009.3
20260506113459 5 241 0.0 0.0 0.00 0.69 0.69 99 1009.3
20260506112956 5 241 0.0 0.0 0.00 0.69 0.69 99 1009.3
20260506112453 5 241 0.0 0.0 0.00 0.69 0.69 99 1009.2
20260506111950 5 241 0.0 0.0 0.13 0.69 0.69 99 1008.9
20260506111449 5 241 0.0 0.0 0.13 0.69 0.69 99 1008.9
20260506110945 5 241 0.0 1.6 0.00 0.66 0.66 99 1009.1
20260506110443 5 241 0.0 1.6 0.18 0.66 0.66 99 1009.0
20260506105939 5 241 0.0 0.0 0.18 0.66 0.66 99 1009.3
20260506105436 5 241 0.0 0.0 0.13 0.64 0.64 99 1009.4
20260506104933 5 242 0.0 0.0 0.23 0.64 0.64 99 1009.2
20260506104431 5 242 0.0 0.0 0.13 0.61 0.61 99 1009.2
20260506103930 5 242 0.0 0.0 0.30 0.61 0.61 99 1009.0
20260506103427 6 242 0.0 0.0 0.30 0.61 0.61 99 1009.1
20260506102923 6 242 0.0 0.0 0.23 0.56 0.56 99 1009.2
20260506102421 6 242 0.0 0.0 0.30 0.56 0.56 99 1009.2
20260506101918 6 242 0.0 0.0 0.30 0.53 0.53 99 1009.3
20260506101414 6 242 0.0 0.0 0.13 0.51 0.51 99 1009.0
20260506100912 6 242 0.0 0.0 0.18 0.48 0.48 99 1009.1
20260506100410 6 241 0.0 0.0 0.30 0.48 0.48 99 1008.7
20260506095908 6 240 0.0 0.0 0.23 0.46 0.46 99 1008.9
20260506095406 6 240 0.0 0.0 0.13 0.43 0.43 99 1008.8
20260506094902 6 240 0.0 0.0 0.18 0.41 0.41 99 1008.6
20260506094401 6 240 0.0 0.0 0.30 0.41 0.41 99 1008.3
20260506093858 6 240 0.0 0.0 0.30 0.38 0.38 99 1008.4
20260506093356 6 240 0.0 0.0 0.18 0.36 0.36 99 1008.5
20260506092853 6 240 0.0 0.0 0.13 0.33 0.33 99 1008.5
20260506092351 6 240 0.0 0.0 0.23 0.33 0.33 99 1008.5
20260506091847 6 240 0.0 0.0 0.13 0.30 0.30 99 1008.4
20260506091345 6 240 0.0 0.0 0.18 0.28 0.28 99 1008.7
20260506090842 6 240 0.0 0.0 0.18 0.28 0.28 99 1009.0
20260506090340 6 240 0.0 0.0 0.00 0.25 0.25 99 1009.3
20260506085836 6 240 0.0 0.0 0.13 0.25 0.25 99 1009.0
20260506085332 6 240 0.0 0.0 0.13 0.25 0.25 99 1009.2
20260506084829 6 240 0.0 0.0 0.00 0.23 0.23 99 1009.1
20260506084326 6 240 0.0 0.0 0.00 0.23 0.23 99 1009.1
20260506083823 6 239 0.0 0.0 0.00 0.23 0.23 99 1009.1
20260506083320 6 238 0.0 0.0 0.00 0.23 0.23 99 1009.0
20260506082818 6 238 0.0 0.0 0.00 0.23 0.23 99 1009.1
20260506082314 6 237 0.0 0.0 0.00 0.23 0.23 99 1009.0
20260506081810 6 237 0.0 0.0 0.00 0.23 0.23 99 1009.2
20260506081308 6 232 0.0 0.0 0.00 0.23 0.23 99 1008.8
20260506080806 6 208 0.0 1.6 0.00 0.23 0.23 99 1009.0
20260506080302 6 229 1.6 1.6 0.00 0.23 0.23 99 1008.8
20260506073246 6 255 0.0 0.0 0.00 0.23 0.23 99 1009.0
20260506072743 6 255 0.0 0.0 0.00 0.23 0.23 99 1009.0
20260506072241 6 255 0.0 0.0 0.00 0.23 0.23 99 1008.9
20260506071738 6 255 0.0 0.0 0.18 0.23 0.23 99 1008.8
20260506071236 6 255 0.0 0.0 0.18 0.23 0.23 99 1008.7
20260506070732 6 255 0.0 0.0 0.00 0.20 0.20 99 1008.9
20260506070229 6 255 0.0 0.0 0.00 0.20 0.20 99 1009.2
20260506062206 6 255 0.0 0.0 0.00 0.18 0.18 99 1009.1
20260506061702 6 255 0.0 0.0 0.18 0.18 0.18 99 1009.6
20260506061200 6 255 3.2 3.2 0.18 0.18 0.18 99 1009.4
20260506060659 6 255 1.6 1.6 0.00 0.15 0.15 99 1009.8
20260506060155 6 255 1.6 1.6 0.00 0.15 0.15 99 1009.4
20260506051127 6 248 3.2 3.2 0.18 0.10 0.10 99 1009.5
20260506050625 6 247 1.6 3.2 0.00 0.08 0.08 99 1009.4
20260506050122 6 251 3.2 3.2 0.00 0.08 0.08 99 1009.2
20260506045115 6 248 3.2 3.2 0.00 0.08 0.08 99 1009.6
20260506044613 6 257 3.2 3.2 0.00 0.08 0.08 99 1009.6
20260506044110 7 258 1.6 3.2 0.00 0.08 0.08 99 1009.4
20260506043607 7 258 3.2 4.8 0.00 0.08 0.08 99 1009.4
20260506043105 7 258 0.0 0.0 0.13 0.08 0.08 99 1009.3
20260506042604 7 258 1.6 3.2 0.13 0.08 0.08 99 1009.5
20260506042102 7 258 3.2 3.2 0.00 0.05 0.05 99 1009.3
20260506041600 7 259 0.0 0.0 0.18 0.05 0.05 99 1009.5
20260506041056 7 258 3.2 3.2 0.30 0.05 0.05 99 1009.5
20260506040554 7 252 0.0 0.0 0.13 0.03 0.03 99 1009.5
20260506040050 7 252 3.2 3.2 0.13 0.03 0.03 99 1009.6
20260506035547 7 258 3.2 3.2 0.00 0.99 0.99 99 1009.8
20260506035044 7 251 3.2 3.2 0.13 0.99 0.99 99 1009.7
20260506034542 7 259 4.8 4.8 0.13 0.99 0.99 99 1009.6
20260506034038 7 257 3.2 4.8 0.00 0.97 0.97 99 1009.7
20260506033536 7 260 3.2 3.2 0.18 0.97 0.97 99 1009.8
20260506033032 7 248 4.8 4.8 0.18 0.97 0.97 99 1009.7
20260506032530 7 249 4.8 4.8 0.13 0.94 0.94 99 1009.7
20260506032026 7 256 3.2 4.8 0.13 0.94 0.94 99 1009.5
20260506031524 7 257 3.2 4.8 0.18 0.91 0.91 99 1009.4
20260506031021 7 250 1.6 3.2 0.18 0.91 0.91 99 1009.3
20260506030519 7 251 3.2 3.2 0.13 0.89 0.89 99 1009.2
20260506030016 7 251 1.6 3.2 0.13 0.89 0.89 99 1009.1
20260506025513 7 251 1.6 1.6 0.00 0.86 0.86 99 1009.2
20260506025009 7 251 1.6 3.2 0.00 0.86 0.86 99 1009.1
20260506024507 7 251 3.2 3.2 0.13 0.86 0.86 99 1009.2
20260506024002 7 252 1.6 3.2 0.13 0.86 0.86 99 1009.1
20260506023459 7 252 3.2 3.2 0.18 0.84 0.84 99 1009.0
20260506022955 7 252 1.6 3.2 0.18 0.84 0.84 99 1008.8
20260506022453 7 252 1.6 1.6 0.13 0.81 0.81 99 1008.9
20260506021951 7 252 0.0 0.0 0.23 0.81 0.81 99 1008.9
20260506021448 7 252 1.6 1.6 0.13 0.79 0.79 99 1009.2
20260506020945 7 252 3.2 3.2 0.18 0.76 0.76 99 1008.9
20260506020443 7 252 3.2 4.8 0.18 0.76 0.76 99 1009.0
20260506015940 8 252 4.8 4.8 0.13 0.74 0.74 99 1008.9
20260506015437 8 253 3.2 3.2 0.30 0.74 0.74 99 1008.8
20260506014934 8 253 3.2 3.2 0.30 0.71 0.71 99 1008.7
20260506014431 8 243 3.2 3.2 0.23 0.69 0.69 99 1008.8
20260506013927 8 254 0.0 1.6 0.30 0.66 0.66 99 1008.7
20260506013426 8 253 0.0 1.6 0.30 0.66 0.66 99 1008.8
20260506012921 8 249 3.2 4.8 0.30 0.61 0.61 99 1008.7
20260506012418 8 259 1.6 3.2 0.30 0.61 0.61 99 1008.6
20260506011915 8 257 3.2 3.2 0.13 0.56 0.56 99 1008.8
20260506011412 8 259 3.2 4.8 0.13 0.56 0.56 99 1008.6
20260506010909 8 253 3.2 3.2 0.30 0.56 0.56 99 1008.7
20260506010408 8 254 1.6 3.2 0.30 0.53 0.53 98 1008.6
20260506005904 8 257 3.2 3.2 0.30 0.51 0.51 98 1008.6
20260506005402 8 249 3.2 3.2 0.30 0.48 0.48 98 1008.3
20260506004857 8 249 3.2 3.2 0.23 0.46 0.46 98 1008.8
20260506004355 8 257 3.2 3.2 0.30 0.43 0.43 98 1008.6
20260506003851 8 258 3.2 3.2 0.30 0.43 0.43 98 1008.7
20260506003347 8 258 1.6 3.2 0.13 0.38 0.38 98 1008.4
20260506002843 8 257 1.6 3.2 0.23 0.38 0.38 97 1008.6
20260506002340 8 258 0.0 0.0 0.30 0.36 0.36 97 1008.2
20260506001836 9 258 3.2 3.2 0.30 0.33 0.33 96 1008.1
20260506001333 9 258 3.2 3.2 0.30 0.30 0.30 95 1008.0
20260506000830 9 257 0.0 0.0 0.18 0.28 0.28 94 1008.0